Weather in Zheleznovodskiy

Russia / Stavropol Krai     44°09′18″N   42°59′28″E
temp.,
°C
wind,
m/s
gust,
m/s
humid.,
%
clouds,
%
prec.,
mm/h
press.,
hPa
HPBL,
m
11 may, tue
tue1100:00+6ssw227272 0.0 101955
03:00+5sse2282100 0.0 101943
06:00+6se2778100 0.0 1018250
09:00+10se7958100 0.0 10171219
12:00+11ese6757100 0.0 10171544
15:00+13e4554100 0.0 10161469
18:00+11ne3568100 0.0 1016426
21:00+7e118138 0.0 101713
12 may, wed
wed1200:00+7ese23863 0.0 101629
03:00+5ese11901 0.0 101715
06:00+6wnw118626 0.0 101753
09:00+12e34684 0.0 1017720
12:00+16e565823 0.0 10161274
15:00+18ese565558 0.0 10151368
18:00+16ese586794 0.0 1015533
21:00+11ese34843 0.0 101553
13 may, thu
thu1300:00+10ese34890 0.0 101450
03:00+9se23920 0.0 101435
06:00+11se12855 0.0 101564
09:00+17ese45664 0.0 1014576
12:00+22ese56580 0.0 1013902
15:00+23ese77555 0.0 10131014
18:00+21ese596942 0.0 1013427
21:00+15se33865 0.0 101434
14 may, fri
fri1400:00+14ese22884 0.0 101326
03:00+14se228916 0.0 101319
06:00+15se22840 0.0 101448
09:00+21ese33635 0.0 1013408
12:00+26e44535 0.0 1012729
15:00+26e55530 0.0 1012870
18:00+24e36695 0.0 1012209
21:00+18ese3384100 0.0 101224
15 may, sat
sat1500:00+18ese228498 0.0 101117
03:00+16ese118723 0.0 101111
06:00+17w22812 0.0 101349
09:00+23wnw69630 0.0 1013700
12:00+26nw78540 0.0 10141352
15:00+27n555542 0.0 10121701
18:00
21:00+17wsw228979 0.0 101627